GFSFLT2_925_spd_183.txt.gz
Wind_Speed
13 13 10 8 8 8 9 8 7 6 5 3 4 5 4 5 6 6 6 8 9 11 11 11 11 12 13 12 12 12 13 13
12 12 11 10 11 9 8 9 9 8 6 7 8 12 11 6 7 8 8 8 9 10 11 11 11 12 14 15 15 13 9 9
15 11 11 10 11 11 10 12 11 12 10 9 9 4 5 6 9 9 10 9 12 12 13 11 10 14 14 18 12 8 9 11
12 11 10 9 9 8 8 8 8 7 6 6 5 5 6 4 10 15 15 14 14 16 17 15 13 10 9 12 10 11 10 9
13 11 9 8 7 7 5 5 5 6 8 6 6 5 5 5 5 6 6 11 8 9 9 9 10 10 10 10 11 11 9 8
14 12 10 8 7 7 6 5 5 5 7 7 6 4 6 6 6 7 7 9 10 10 9 10 9 9 9 10 10 10 9 8
14 13 11 9 9 8 7 6 6 6 6 9 7 6 6 6 6 7 8 9 9 10 11 11 10 10 10 9 9 8 8 7
13 12 11 11 10 9 8 7 7 6 7 8 9 7 7 6 6 7 8 9 10 10 11 11 10 10 10 9 9 7 6 6
14 13 12 11 12 10 8 8 7 7 7 9 9 8 7 6 6 7 8 9 9 9 10 9 9 10 10 8 7 5 5 5
14 12 12 11 11 10 9 8 7 6 6 7 9 9 8 7 7 8 9 9 9 9 10 10 10 10 10 8 7 5 4 4
14 13 13 12 11 10 10 9 7 6 6 6 7 9 9 7 7 8 8 8 9 10 10 10 10 11 10 7 5 3 3 3
15 14 14 13 12 11 9 8 7 6 6 7 7 8 8 6 7 8 8 8 9 12 11 11 10 13 13 7 3 1 2 2
15 15 14 13 11 10 8 7 6 6 6 7 7 8 8 9 7 7 8 9 11 12 12 11 10 15 9 11 7 5 2 2
15 15 14 11 9 7 6 7 6 6 6 7 8 9 9 8 8 8 10 9 11 13 14 13 9 13 12 11 4 6 3 1
15 14 14 11 10 9 9 8 7 6 5 5 7 8 9 9 10 9 9 9 10 11 13 12 10 10 11 9 4 4 11 4
16 15 15 12 11 9 8 6 6 6 5 5 6 8 9 9 9 8 9 8 10 10 11 10 11 10 8 10 6 5 4 5
15 14 14 12 11 9 8 5 6 6 6 6 6 6 8 8 8 8 8 8 9 10 10 10 10 10 10 10 10 6 10 6
16 15 13 12 11 9 7 8 8 7 5 5 4 4 6 7 7 8 8 8 8 8 9 11 11 11 9 10 11 7 10 8
16 16 15 13 12 11 10 9 7 7 6 4 5 4 4 5 7 8 8 8 8 8 10 12 12 11 9 8 8 8 7 8
17 17 15 14 13 12 11 10 8 7 5 6 5 5 6 6 7 8 8 8 9 10 11 10 8 9 9 9 8 8 8 9

GFSFLT2_925_spd_186.txt.gz
Wind_Speed
13 12 11 9 10 13 14 14 14 11 8 7 8 7 5 3 5 5 6 8 8 9 10 9 9 9 10 11 12 10 11 6
14 14 11 12 13 10 10 11 11 9 9 9 10 12 12 7 9 10 10 11 14 13 12 12 12 13 12 15 13 9 13 9
15 18 14 12 15 16 15 14 13 12 11 10 10 4 4 6 12 12 16 14 15 16 15 15 12 13 12 15 15 11 7 10
17 15 15 12 11 14 10 10 9 9 9 8 5 5 9 4 11 12 13 14 13 15 14 12 10 10 9 9 11 12 14 9
17 16 15 13 11 12 13 10 9 9 9 8 8 4 6 6 6 7 8 9 10 10 10 11 12 12 11 11 11 10 10 11
18 14 13 10 10 9 9 10 10 8 8 10 7 5 6 7 6 7 8 9 9 10 10 10 10 9 10 11 10 9 10 9
17 15 12 11 10 11 9 11 11 10 9 10 10 8 8 7 7 7 8 8 10 10 10 11 10 9 9 9 10 8 8 8
17 16 14 13 13 12 10 9 11 10 9 9 10 7 9 6 6 7 8 10 11 10 11 11 10 9 9 9 8 7 8 8
17 16 15 14 14 13 12 11 10 10 9 10 10 9 9 8 7 7 8 9 9 9 10 9 10 10 10 8 6 5 5 7
19 16 16 15 15 12 12 11 11 11 10 8 9 10 11 7 7 7 10 8 9 10 10 10 10 11 10 7 5 2 4 6
19 19 18 16 15 15 14 12 11 10 10 9 9 10 10 8 8 8 9 8 10 11 10 11 12 12 13 8 2 3 5 9
19 19 19 18 16 16 14 13 11 10 10 9 9 9 9 9 8 8 9 9 12 13 12 10 10 13 12 10 4 4 4 4
19 20 19 19 18 17 16 15 13 11 10 10 9 9 9 10 8 8 10 10 12 13 13 11 11 17 11 12 3 9 6 4
19 20 19 18 16 15 16 16 14 13 11 10 9 9 10 9 9 9 9 10 11 13 14 15 9 17 11 8 2 8 7 8
18 19 19 15 17 16 16 14 12 13 12 10 9 9 10 10 9 9 10 11 12 13 14 14 12 14 15 9 3 3 9 7
18 19 18 15 15 17 17 18 15 15 14 11 10 9 10 9 9 10 11 11 12 13 13 14 13 13 11 14 10 5 2 4
16 18 17 15 13 15 14 15 17 15 14 12 10 10 9 9 9 10 11 11 11 12 12 12 12 13 13 12 9 14 17 4
14 16 16 16 12 13 12 15 16 15 13 13 12 10 9 9 9 10 10 10 9 10 11 12 13 13 13 14 15 10 11 8
16 16 15 15 14 11 10 14 14 15 12 14 12 11 9 8 8 9 9 10 9 10 11 13 13 13 12 14 15 12 11 9
18 17 16 14 14 14 14 14 14 13 11 12 10 10 10 9 10 10 10 10 10 10 11 11 11 13 13 13 13 11 9 9

GFSFLT2_925_spd_192.txt.gz
Wind_Speed
18 16 16 17 16 16 16 15 13 11 10 8 7 5 4 4 5 7 9 11 12 12 11 10 8 9 12 12 10 10 8 9
17 16 15 15 17 16 16 16 15 13 12 12 13 13 12 11 11 12 13 13 13 11 11 10 10 8 11 11 9 10 14 14
17 15 13 13 15 16 15 15 16 15 13 11 11 11 10 11 11 12 11 10 9 9 9 9 7 8 10 8 11 13 13 14
16 15 15 16 17 18 19 19 17 14 13 10 10 9 8 8 8 8 10 9 9 9 9 9 10 10 11 10 10 10 11 13
20 16 18 20 21 20 19 17 15 14 14 13 12 10 10 9 8 9 7 6 6 7 7 9 10 10 11 10 9 10 12 14
21 18 20 19 18 19 18 16 16 15 14 14 12 12 11 9 7 5 4 5 5 7 7 9 9 8 10 10 8 10 11 14
26 23 22 20 20 19 19 17 14 14 13 15 12 11 11 9 8 6 5 5 6 7 7 8 9 10 9 11 10 11 13 15
28 23 22 23 22 23 23 18 14 13 12 12 11 12 11 9 7 6 6 6 5 5 6 7 8 8 9 8 13 13 15 15
29 23 21 25 27 26 22 17 13 10 11 10 11 10 11 8 8 7 6 5 4 4 5 5 5 6 9 12 14 16 16 15
35 30 27 25 24 21 19 15 11 11 11 12 10 9 9 8 10 8 7 4 3 4 5 5 6 6 7 9 16 20 18 17
37 31 29 25 21 19 18 14 13 11 11 12 12 9 6 8 10 9 5 3 4 5 5 6 7 7 7 12 22 22 19 19
39 36 32 29 26 22 20 17 14 10 10 11 11 11 10 9 10 9 5 5 6 7 9 8 8 6 12 16 17 21 20 20
41 37 34 33 31 29 25 22 17 11 9 8 10 10 11 10 10 9 7 7 8 8 9 9 11 8 11 24 21 19 20 21
41 39 39 36 32 29 26 23 14 11 10 10 10 11 10 9 8 8 8 8 8 8 8 8 13 10 7 9 3 8 17 19
40 41 39 35 32 29 28 22 18 14 12 10 10 9 10 9 9 8 8 8 9 9 7 6 8 13 7 4 2 3 7 12
39 39 37 33 31 32 33 27 22 18 16 13 11 10 10 9 9 8 8 9 9 9 8 8 8 11 10 12 7 8 3 3
36 36 34 33 33 31 33 29 23 22 19 16 15 13 11 11 10 10 10 11 11 10 12 11 10 10 10 9 13 15 9 5
32 31 30 29 29 32 36 31 26 27 23 20 18 16 13 11 11 11 12 12 12 13 15 13 14 14 12 10 7 5 3 5
27 26 27 28 31 33 31 30 28 30 28 25 23 21 18 15 13 14 14 13 13 13 15 16 14 15 16 19 18 16 12 10
24 28 30 29 28 26 27 26 30 31 28 26 23 21 19 16 15 15 14 14 14 15 16 17 16 17 17 16 16 15 14 11

GFSFLT2_925_spd_198.txt.gz
Wind_Speed
25 24 21 19 17 18 18 17 13 11 10 8 7 8 8 8 8 8 10 10 11 11 12 9 9 10 12 13 13 13 13 13
24 22 21 21 21 19 17 15 14 12 10 9 9 9 10 10 11 11 13 12 12 12 12 9 9 10 12 14 16 16 17 17
23 22 23 22 20 18 17 17 15 13 10 11 11 12 13 14 12 12 12 12 11 11 10 8 9 12 13 14 15 16 15 15
22 21 21 19 19 18 16 15 14 14 13 13 12 12 11 12 12 11 12 11 11 11 11 10 10 12 14 14 15 16 16 17
21 20 18 18 20 18 17 16 16 16 15 12 10 10 11 10 10 11 11 10 10 11 11 11 11 11 13 14 16 17 17 19
23 23 21 20 19 20 19 18 17 17 15 12 11 11 10 10 9 9 9 8 8 10 12 13 11 13 13 16 16 17 18 20
27 26 23 21 20 22 21 20 18 17 15 13 13 13 13 11 9 8 8 8 8 10 12 13 13 14 15 16 18 18 19 19
28 25 22 20 21 21 20 18 17 16 16 15 15 13 12 10 9 8 8 9 9 10 12 14 15 15 18 18 19 19 19 18
33 30 28 28 28 26 24 21 18 17 18 18 16 15 14 12 10 9 9 10 11 11 11 13 15 17 21 20 20 19 20 18
33 32 31 30 29 27 24 22 21 20 19 17 16 16 14 12 11 11 10 10 10 12 12 13 16 19 22 21 21 19 19 18
33 34 32 30 30 29 26 23 19 18 19 19 18 17 15 12 11 11 10 9 10 11 13 13 17 22 24 21 20 19 19 18
35 36 35 33 30 29 26 23 20 17 17 17 19 18 16 15 14 12 10 9 10 12 13 16 20 26 27 24 18 17 18 18
38 38 36 37 35 32 27 25 20 18 16 15 17 17 17 16 14 12 11 10 12 14 18 21 25 30 25 26 20 17 17 16
37 38 37 35 36 32 24 25 20 18 14 14 14 14 14 14 14 13 12 11 13 14 15 21 28 24 14 16 3 7 12 13
31 35 38 37 35 32 24 22 18 16 15 14 15 14 14 14 13 12 12 12 13 15 14 17 17 15 27 7 3 3 6 6
28 33 33 33 31 28 28 23 18 13 18 15 15 14 12 12 13 14 13 12 12 11 12 13 14 17 22 5 6 16 3 3
18 19 19 26 28 27 27 19 15 15 16 15 15 15 13 12 11 12 12 11 11 10 10 11 12 15 21 7 11 8 14 6
20 18 14 10 9 14 17 21 17 16 17 17 15 13 13 14 11 12 11 11 11 10 9 8 8 10 13 10 10 7 10 7
20 14 8 5 12 21 22 24 22 24 26 24 21 18 16 14 12 10 11 12 11 10 9 8 6 6 9 10 10 8 22 14
18 15 6 10 19 29 28 28 28 29 26 22 23 21 17 16 13 12 12 12 12 12 10 9 10 10 10 10 10 10 16 23

GFSFLT2_925_spd_201.txt.gz
Wind_Speed
18 16 17 18 19 19 19 17 18 16 11 10 11 9 9 9 8 9 10 11 11 11 13 12 11 11 12 12 12 12 13 13
21 19 20 18 16 18 20 19 16 11 10 8 8 10 11 11 11 10 12 13 14 13 13 13 13 14 15 15 16 16 15 15
23 22 20 19 18 17 18 17 15 14 11 9 11 12 12 12 12 13 12 13 13 12 12 14 15 16 16 16 15 14 14 14
22 22 21 21 20 19 17 17 15 14 12 13 13 14 14 12 13 14 13 13 12 12 13 14 15 14 16 14 14 15 15 15
25 23 20 21 22 21 20 18 17 16 15 16 15 14 12 11 13 13 13 12 13 12 13 13 14 14 14 14 15 15 15 16
26 25 23 23 25 25 23 21 19 17 18 18 18 15 15 14 13 14 13 13 13 13 13 14 15 15 16 17 16 16 16 17
23 23 22 21 23 23 23 22 21 22 22 19 18 17 18 18 16 15 14 13 14 15 15 15 16 15 15 17 17 17 17 16
22 24 25 25 24 24 23 23 23 23 22 19 17 17 19 18 18 17 16 16 17 17 18 18 17 16 16 17 17 17 16 16
22 24 25 26 25 24 25 25 23 23 22 19 18 18 17 16 15 15 17 18 19 19 19 19 19 16 17 17 17 16 17 17
22 27 28 28 27 25 23 22 22 21 20 19 18 18 18 17 15 14 16 17 18 20 19 18 18 18 18 16 15 15 16 16
25 28 31 30 27 24 23 21 19 18 18 18 19 18 17 17 17 16 16 18 19 19 20 20 21 20 18 17 15 14 13 14
24 25 32 32 28 25 22 21 20 19 17 18 19 18 18 16 16 16 16 17 18 19 21 19 22 24 22 18 15 14 13 12
27 25 31 36 33 21 17 18 18 19 19 19 20 19 19 17 16 16 16 15 17 20 21 25 22 25 23 20 16 14 13 12
23 23 26 34 33 23 15 17 15 17 18 18 18 19 19 19 18 16 16 18 20 22 23 21 21 22 14 15 6 7 10 9
18 20 26 32 32 28 21 20 15 14 16 18 20 18 17 17 17 18 16 17 17 17 17 16 19 13 23 6 5 5 14 7
12 16 20 19 22 20 28 18 13 8 12 15 19 17 15 14 14 14 16 16 18 19 19 15 20 18 14 3 4 15 5 5
12 14 13 14 12 13 13 11 8 4 3 6 11 15 13 12 11 11 12 15 15 16 18 18 18 16 18 9 9 10 11 8
17 19 17 13 8 8 9 7 12 9 12 16 14 13 14 12 12 10 11 12 14 15 16 16 16 14 15 13 14 10 15 7
21 16 18 17 14 13 17 20 26 21 22 24 19 18 14 14 12 12 13 12 13 12 12 11 13 13 15 14 13 11 15 11
22 23 24 22 21 23 26 26 33 28 25 24 22 19 19 17 16 16 15 14 12 11 10 8 8 10 12 12 12 12 15 15

GFSFLT2_925_spd_207.txt.gz
Wind_Speed
20 19 19 20 20 20 18 19 19 18 16 16 14 13 13 10 9 9 8 7 7 7 7 7 8 10 11 12 13 6 11 10
18 19 19 19 19 20 20 21 21 19 17 15 14 14 12 10 9 9 9 10 10 10 9 9 11 11 12 14 14 12 10 10
19 21 20 20 19 20 22 21 21 20 17 15 12 10 11 10 12 11 11 11 11 11 10 11 12 14 16 17 11 9 10 9
19 21 21 22 21 23 24 23 20 16 14 14 11 11 10 12 12 13 13 12 11 9 10 11 12 11 12 9 8 11 13 11
19 19 20 19 17 18 24 22 18 19 16 13 11 11 9 11 10 10 10 12 9 9 13 10 9 10 9 7 11 12 15 16
19 20 19 18 17 18 26 27 26 22 20 19 18 16 12 13 12 13 12 12 13 14 12 7 7 5 7 9 10 13 16 18
24 21 18 18 18 18 18 23 20 15 20 22 20 19 18 18 16 15 14 14 14 13 12 13 13 12 10 10 10 13 17 20
24 26 24 21 20 20 17 17 17 22 19 20 23 20 17 16 16 16 15 16 16 16 16 16 15 15 14 13 13 14 15 16
22 22 23 23 21 20 17 16 17 20 19 23 26 27 18 16 17 17 16 16 15 15 16 16 16 15 16 16 15 14 14 16
21 22 21 25 21 20 18 17 18 20 24 22 22 22 19 17 18 18 18 17 18 19 19 18 17 18 17 16 16 15 14 14
17 24 24 21 23 19 21 20 17 17 20 19 19 21 20 19 20 18 17 17 18 19 19 20 19 18 17 16 15 16 15 12
14 16 17 20 22 19 16 17 17 17 20 20 19 21 20 20 20 19 18 18 19 19 20 21 21 21 19 16 15 14 13 12
9 13 12 18 18 14 15 18 18 19 20 19 19 19 21 21 20 20 20 22 22 22 21 22 22 21 21 17 13 12 12 12
6 9 11 18 17 16 18 19 20 21 22 21 20 20 20 21 21 20 20 20 20 22 23 22 21 23 20 18 8 11 11 12
1 5 8 16 15 17 18 16 17 18 18 17 18 18 19 18 17 16 19 20 22 22 24 24 22 25 25 14 7 6 16 12
3 3 6 9 17 18 19 17 13 12 11 13 14 13 15 19 13 14 9 15 17 22 25 24 22 25 24 23 5 10 7 7
2 3 6 9 11 17 22 20 20 16 19 17 13 14 13 14 15 18 15 6 7 16 17 20 20 25 20 20 10 17 15 12
2 5 7 9 13 17 24 30 27 26 25 24 22 22 22 23 17 18 17 17 12 12 15 16 17 18 20 19 15 12 11 9
8 10 12 13 14 15 16 17 20 24 26 23 20 21 23 24 22 21 21 19 16 18 14 18 20 13 17 17 17 17 10 12
14 15 16 16 16 16 16 17 20 18 16 15 19 18 18 19 18 19 16 13 13 12 13 14 16 15 16 16 15 13 13 13

GFSFLT2_925_spd_213.txt.gz
Wind_Speed
22 22 20 18 19 19 19 18 19 19 17 16 14 13 10 9 10 8 8 8 8 7 7 6 7 10 17 18 16 10 14 16
21 22 21 19 18 18 18 18 18 18 18 18 16 10 9 9 9 9 8 8 8 7 7 8 9 11 15 14 8 15 16 18
19 22 21 20 18 18 18 19 19 19 18 16 13 11 12 12 11 10 11 11 10 8 8 8 9 12 16 13 9 21 19 20
22 22 23 22 22 21 20 20 19 19 17 15 12 12 11 13 13 11 12 12 11 10 9 9 10 13 18 10 19 20 22 21
25 22 22 22 22 22 23 23 22 22 21 19 17 15 12 12 11 13 13 13 12 12 12 13 13 17 19 8 21 26 24 22
21 19 22 19 22 24 26 26 25 24 23 21 20 19 18 18 17 15 15 15 15 15 14 15 16 18 12 10 22 25 26 24
23 22 26 26 29 26 25 26 26 26 25 23 21 21 24 22 20 17 17 16 17 16 18 20 15 13 12 19 24 26 27 26
25 22 26 27 25 25 26 25 26 25 25 24 23 25 25 23 20 19 18 17 18 17 20 19 12 16 14 17 24 27 27 27
31 22 24 26 25 23 23 24 26 28 28 26 26 27 27 24 23 22 22 20 19 20 20 18 19 17 15 18 24 25 25 23
32 34 29 29 26 22 20 20 22 25 27 24 24 26 27 28 28 28 27 25 23 25 24 25 24 23 21 25 24 25 23 19
29 31 30 28 23 22 22 21 22 22 22 24 24 26 29 31 31 31 28 28 28 23 28 31 28 27 26 22 26 25 23 21
26 29 26 23 20 19 17 18 22 23 23 22 23 25 29 31 33 29 28 27 29 27 29 32 33 32 29 23 27 25 25 23
21 22 19 17 19 19 19 20 20 21 20 21 22 22 26 31 33 30 30 29 34 31 29 31 30 35 29 25 22 26 31 29
19 17 14 12 15 17 14 17 18 19 19 17 19 23 24 27 30 33 30 27 31 33 34 26 22 37 24 21 5 8 20 26
18 15 11 9 8 11 14 12 14 16 18 19 19 20 24 27 27 28 27 25 32 32 33 32 25 28 31 18 6 5 16 22
9 8 7 3 2 5 9 13 16 17 16 16 15 15 21 28 28 31 27 19 24 32 27 30 20 16 18 21 26 18 6 5
7 7 5 3 4 6 11 13 16 16 14 14 14 13 13 13 15 16 16 14 16 13 21 25 24 16 20 19 13 24 23 16
4 4 5 7 7 8 10 11 14 15 14 14 14 15 16 14 13 11 13 14 15 14 13 15 21 19 20 20 6 14 13 18
13 11 10 12 12 12 13 12 12 11 11 14 16 17 20 22 22 22 23 21 19 17 16 14 16 19 16 23 16 20 22 23
10 11 12 15 18 17 16 16 13 11 11 13 15 20 22 23 24 23 21 22 23 24 21 19 15 13 13 17 27 21 25 30